Weather History for Fort Drum, NY

Change the Weather History Date:

Thursday, September 26, 2013

  Actual Average Record
Temperature  
Mean Temperature 56 °F -  
Max Temperature 66 °F 63 °F 79 °F (2011)
Min Temperature 45 °F 43 °F 37 °F (1996)
Degree Days  
Heating Degree Days 10    
Growing Degree Days 6 (Base 50)    
Moisture  
Dew Point 47 °F    
Average Humidity 79    
Maximum Humidity 98    
Minimum Humidity 51    
Precipitation  
Precipitation 0.00 in - - ()
Sea Level Pressure  
Sea Level Pressure 30.09 in    
Wind  
Wind Speed 6 mph (ENE)    
Max Wind Speed 13 mph    
Max Gust Speed 18 mph    
Visibility 10 miles    
Events      
Averages and records for this station are not official NWS values.
T = Trace of Precipitation, MM = Missing Value Source: NWS Daily Summary

Daily Weather History Graph

Daily Weather History Graph

Search for Another Location

Airport:

Trip Planner

Search our weather history database for the weather conditions in past years. The results will help you decide how hot, cold, wet, or windy it might be!

Date:

Astronomy

Sep. 26, 2013 Rise Set
Actual Time 6:54 AM EDT 6:52 PM EDT
Civil Twilight 6:26 AM EDT 7:21 PM EDT
Nautical Twilight 5:52 AM EDT 7:54 PM EDT
Astronomical Twilight 5:18 AM EDT 8:28 PM EDT
Moon 11:38 PM EDT (9/26) 1:56 PM EDT (9/26)
Length of Visible Light 12h 55m
Length of Day
11h 57m
Waning Gibbous, 55% of the Moon is Illuminated
Sep 26
Waning Gibbous
Sep 26
Last Quarter
Oct 4
New
Oct 11
First Quarter
Oct 18
Full

Hourly Weather History & Observations

Time (EDT) Temp. Windchill Dew Point Humidity Pressure Visibility Wind Dir Wind Speed Gust Speed Precip Events Conditions
12:58 AM 45.5 °F 43.2 °F 44.6 °F 97% 30.01 in 10.0 mi SSE 4.6 mph - N/A   Clear
1:58 AM 47.8 °F - 46.4 °F 95% 30.01 in 10.0 mi SSE 2.3 mph - N/A   Clear
2:58 AM 46.8 °F - 45.7 °F 96% 30.01 in 10.0 mi SE 5.8 mph - N/A   Clear
3:58 AM 46.0 °F 44.8 °F 45.3 °F 97% 30.03 in 10.0 mi SE 3.5 mph - N/A   Clear
4:58 AM 46.4 °F 44.3 °F 45.3 °F 96% 30.03 in 10.0 mi SE 4.6 mph - N/A   Clear
5:58 AM 45.9 °F 43.6 °F 45.0 °F 97% 30.04 in 10.0 mi SE 4.6 mph - N/A   Clear
6:58 AM 45.3 °F 44.0 °F 44.8 °F 98% 30.06 in 10.0 mi SSE 3.5 mph - N/A   Clear
7:58 AM 47.3 °F - 46.2 °F 96% 30.08 in 10.0 mi SSE 2.3 mph - N/A   Clear
8:58 AM 51.4 °F - 48.2 °F 89% 30.09 in 10.0 mi East 2.3 mph - N/A   Clear
9:58 AM 57.2 °F - 48.9 °F 74% 30.10 in 10.0 mi NE 8.1 mph - N/A   Clear
10:58 AM 60.3 °F - 48.0 °F 64% 30.11 in 10.0 mi NNE 8.1 mph - N/A   Clear
11:58 AM 62.1 °F - 48.4 °F 61% 30.11 in 10.0 mi NNE 9.2 mph - N/A   Clear
12:58 PM 63.9 °F - 46.6 °F 53% 30.10 in 10.0 mi NNE 12.7 mph - N/A   Clear
1:58 PM 64.9 °F - 47.5 °F 53% 30.09 in 10.0 mi NNE 10.4 mph - N/A   Clear
2:58 PM 66.0 °F - 47.5 °F 51% 30.09 in 10.0 mi North 10.4 mph - N/A   Clear
3:58 PM 65.7 °F - 48.6 °F 54% 30.10 in 10.0 mi NNE 11.5 mph 18.4 mph N/A   Clear
4:58 PM 64.8 °F - 48.4 °F 55% 30.10 in 10.0 mi NNE 12.7 mph - N/A   Clear
5:58 PM 62.6 °F - 48.9 °F 61% 30.11 in 10.0 mi NNE 10.4 mph - N/A   Clear
6:58 PM 57.6 °F - 48.0 °F 70% 30.13 in 10.0 mi NNE 9.2 mph - N/A   Clear
7:58 PM 54.1 °F - 47.5 °F 78% 30.15 in 10.0 mi NE 8.1 mph - N/A   Clear
8:58 PM 50.9 °F - 46.8 °F 86% 30.16 in 10.0 mi NNE 4.6 mph - N/A   Clear
9:58 PM 50.2 °F - 46.6 °F 87% 30.17 in 10.0 mi ENE 5.8 mph - N/A   Clear
10:58 PM 49.5 °F - 46.6 °F 90% 30.16 in 10.0 mi SSE 5.8 mph - N/A   Clear
11:58 PM 48.4 °F - 46.6 °F 93% 30.16 in 10.0 mi ESE 5.8 mph - N/A   Clear